Regional Weather Roundup
Issued by NWS Sioux Falls, SD

Home | Current Version | Previous Version | Text Only | Print | Product List | Glossary On
Versions: 1 2 3 4 5 6 7 8 9 10 11 12 13 14 15 16 17 18 19 20 21 22 23 24 25 26 27 28 29 30 31 32 33 34 35 36 37 38 39 40 41 42 43 44 45 46 47 48 49 50
000
ASUS43 KFSD 220710
RWRFSD

WEATHER ROUNDUP FOR SE SOUTH DAKOTA/SW MINNESOTA/NW IOWA
NATIONAL WEATHER SERVICE SIOUX FALLS SD
100 AM CST WED NOV 22 2017

NOTE: "FAIR" INDICATES FEW OR NO CLOUDS BELOW 12,000 FEET WITH NO
SIGNIFICANT WEATHER AND OR OBSTRUCTIONS TO VISIBILITY.


SDZ038>040-050-052>070-220800-
SOUTHEAST SOUTH DAKOTA

CITY           SKY/WX    TMP DP  RH WIND       PRES   REMARKS
BROOKINGS      CLOUDY    12   7  80 CALM      30.34R
CHAMBERLAIN    CLOUDY    13  11  90 S3        30.32F
HURON          CLEAR      9   5  84 CALM      30.35F
MADISON        FAIR      14   7  73 W5        30.34R WCI   6
MITCHELL       CLOUDY    13   9  84 SW5       30.37F WCI   5
SIOUX FALLS    CLOUDY    14   8  77 CALM      30.36F
WINNER         FAIR      20  11  68 S8        30.30F WCI  10
YANKTON        CLOUDY    13   8  81 S6        30.39F WCI   4
$$

MNZ071-072-080-081-089-090-097-098-220800-
SOUTHWEST MINNESOTA

CITY           SKY/WX    TMP DP  RH WIND       PRES   REMARKS
FAIRMONT       CLOUDY    17  10  74 NW10      30.37S WCI   5
JACKSON        CLOUDY    14   9  79 CALM      30.36R
LUVERNE        CLOUDY    10   3  72 S3        30.37S
MARSHALL       CLOUDY    12   6  77 W9        30.37F WCI   0
MONTEVIDEO     CLOUDY    14   7  73 CALM      30.37F
PIPESTONE      CLOUDY    14   7  73 N3        30.34R
REDWOOD FALLS  CLOUDY    14   7  73 W6        30.36F WCI   5
WINDOM         CLOUDY    14   1  57 NW6       30.36R WCI   5
WORTHINGTON    CLOUDY    13   6  74 W3        30.35S
$$

IAZ001>003-012>014-020>022-031-032-NEZ013-014-SDZ071-220800-
NORTHWEST IOWA

CITY           SKY/WX    TMP DP  RH WIND       PRES   REMARKS
CHEROKEE       CLOUDY    14   9  79 CALM      30.40S
DENISON        CLOUDY    18  10  73 NW5       30.41R WCI  11
ESTHERVILLE    CLOUDY    12   8  84 NW8       30.36R WCI   0
LE MARS        CLOUDY    14   9  79 SW3       30.41R
ORANGE CITY    CLOUDY    16  10  79 N5        30.37S WCI   9
SHELDON        CLOUDY    10   7  85 CALM      30.36S
SIOUX CITY     CLOUDY    15   8  73 NW5       30.41F WCI   8
SPENCER        CLOUDY    11   7  84 W3        30.38R
STORM LAKE     CLOUDY    14   9  79 NW10      30.37R WCI   1
$$

ABBREVIATIONS USED IN REMARKS
   TC - TEMPERATURE IN CELSIUS
  WCI - WIND CHILL INDEX
   HX - HEAT INDEX
  VSB - VISIBILITY





USA.gov is the U.S. government's official web portal to all federal, state and local government web resources and services.